AirNav   Air Wisconsin pilot careers
 
 621 users online  

SN04 Roberts Memorial Airport
Emporia, Kansas, USA

GOING TO EMPORIA?


FAA INFORMATION EFFECTIVE 07 DECEMBER 2017

Location

FAA Identifier: SN04
Lat/Long: 38-25-23.0000N / 096-22-19.0000W
38-25.383333N / 096-22.316667W
38.4230556 / -96.3719444
(estimated)
Elevation: 1185 ft. / 361 m (estimated)
Variation: 06E (1995)
From city: 9 miles W of EMPORIA, KS
Time zone: UTC -6 (UTC -5 during Daylight Saving Time)
Zip code: 66801

Airport Operations

Airport use: Private use. Permission required prior to landing
Activation date: 02/2000
Control tower: no
ARTCC: KANSAS CITY CENTER
FSS: WICHITA FLIGHT SERVICE STATION
Attendance: MAR-NOV SUN-SAT 0900-1700
Wind indicator: no
Segmented circle: no

Airport Communications

WX ASOS at EMP (10 nm SE): 126.125 (620-343-3733)

Nearby radio navigation aids

VOR radial/distance  VOR name  Freq  Var
EMPr298/13.6EMPORIA VORTAC112.8008E

 
NDB name  Hdg/Dist  Freq  Var  ID
HERINGTON122/26.240706EHRU .... .-. ..-
BOYD279/31.524505EUKL ..- -.- .-..

Airport Services

Fuel available: MOGAS

Runway Information

Runway 18/36

Dimensions: 1800 x 60 ft. / 549 x 18 m
Surface: turf
RUNWAY 18  RUNWAY 36
Traffic pattern: leftleft
Obstructions: none30 ft. pline

Airport Ownership and Management from official FAA records

Ownership: Privately-owned
Owner: CHARLES DUNN
2412 TOLEDO RD
EMPORIA, KS 66801
Phone 620-366-0894
Manager: CHARLES DUNN
2412 TOLEDO RD
EMPORIA, KS 66801
Phone 620-366-0894
EXT. 220.

Airport Operational Statistics

Aircraft based on the field: 3
Single engine airplanes: 3
    
Aircraft operations: 28/year *
100% local general aviation
* for 12-month period ending 07 October 1999

Additional Remarks

60 FT TREES 150 FT SOUTH OF RY 36.

Instrument Procedures

There are no published instrument procedures at SN04.

Some nearby airports with instrument procedures:

KEMP - Emporia Municipal Airport (10 nm SE)
KHRU - Herington Regional Airport (26 nm NW)
KUKL - Coffey County Airport (31 nm E)
13K - Lt. William M. Milliken Airport (34 nm S)
KFRI - Marshall Army Airfield (42 nm NW)
 
Loc | Ops | Rwys | IFR | FBO | Links
Com | Nav | Svcs | Stats | Notes

Kansas City Aviation Department
 
Area around SN04 (Roberts Memorial Airport)
 
Road maps at: MapQuest Bing Google
 
Aerial photo
No photo
 
Sectional chart

 
Airport distance calculator
Flying to Roberts Memorial Airport? Find the distance to fly.

From to SN04

Sunrise and sunset
Times for 18-Dec-2017
 Local
(UTC-6)
 Zulu
(UTC)
Morning civil twilight07:0913:09
Sunrise07:3813:38
Sunset17:0623:06
Evening civil twilight17:3523:35

Current date and time
Zulu (UTC)  18-Dec-2017 11:27:40
Local (UTC-6)  18-Dec-2017 05:27:40
 
METAR
KEMP 
10nm SE 
181053Z AUTO 26006KT 6SM BR CLR 01/M01 A3005 RMK AO2 SLP185 T00061006 $
TAF
KFRI 
41nm NW 
181012Z 1810/1914 25006KT 9999 FEW030 QNH3000INS BECMG 1817/1818 22012KT 9999 SKC QNH3000INS BECMG 1822/1823 19008KT 9999 SKC 520053 QNH2999INS BECMG 1911/1912 25006KT 9999 SKC QNH2998INS TX13/1821Z TNM05/1812Z
KMHK 
45nm N 
181011Z 1810/1906 VRB03KT 4SM BR SKC TEMPO 1811/1813 2SM BR FM181400 23008KT P6SM SKC
KFOE 
46nm NE 
181010Z 1810/1906 24007KT 5SM BR SKC TEMPO 1811/1813 2SM BR SKC FM181400 23007KT P6SM SKC
NOTAMs
Click for the latest NOTAMs
NOTAMs are issued by the DoD/FAA and will open in a separate window not controlled by AirNav.

 

 
 

Would you like to see your business listed on this page?

 If your business provides an interesting product or service to pilots, flight crews, aircraft, or users of the Roberts Memorial Airport, you should consider listing it here.  To start the listing process, click on the button below
 
Add a business
 

Other Pages about Roberts Memorial Airport

Update a link
 
Copyright © AirNav, LLC. All rights reserved. Privacy Policy  Contact